FW9766 Weather Reports


Display with metric or nautical units.
time (UTC)temp
F
wind
direction
speed
MPH
gust
MPH
rain 1hr
in
rain 24hr
in
rain mn
in
humidity
%
barometer
mb
20260505124546 67 119 6.0 12.0 0.00 0.00 0.00 96 1009.8
20260505123045 67 100 6.0 14.0 0.00 0.00 0.00 96 1009.6
20260505121548 67 85 6.0 12.0 0.00 0.00 0.00 95 1009.5
20260505120040 67 129 4.0 13.0 0.00 0.00 0.00 95 1009.3
20260505114548 67 89 6.0 13.0 0.00 0.00 0.00 95 1009.2
20260505113052 67 117 4.0 10.0 0.00 0.00 0.00 94 1008.9
20260505111548 67 114 5.0 9.0 0.00 0.00 0.00 94 1008.9
20260505101554 67 155 4.0 14.0 0.00 0.00 0.00 94 1008.9
20260505100047 67 54 5.0 12.0 0.00 0.00 0.00 94 1009.1
20260505094559 67 129 6.0 13.0 0.00 0.00 0.00 94 1009.1
20260505093053 67 80 5.0 11.0 0.00 0.00 0.00 93 1009.3
20260505091545 67 113 4.0 11.0 0.00 0.00 0.00 93 1009.2
20260505090057 68 86 4.0 12.0 0.00 0.00 0.00 93 1009.3
20260505084541 68 136 5.0 13.0 0.00 0.00 0.00 93 1009.4
20260505083102 68 94 5.0 14.0 0.00 0.00 0.00 93 1009.5
20260505081547 68 61 6.0 14.0 0.00 0.00 0.00 93 1009.6
20260505080046 68 96 6.0 15.0 0.00 0.00 0.00 92 1009.7
20260505074545 68 71 7.0 15.0 0.00 0.00 0.00 92 1009.8
20260505073051 68 101 6.0 15.0 0.00 0.00 0.00 92 1010.0
20260505071548 68 111 5.0 12.0 0.00 0.00 0.00 91 1010.2
20260505070100 68 64 6.0 15.0 0.00 0.00 0.00 91 1010.3
20260505064554 68 98 5.0 12.0 0.00 0.00 0.00 91 1010.4
20260505063044 68 78 3.0 11.0 0.00 0.00 0.00 90 1010.7
20260505061608 68 92 3.0 8.0 0.00 0.00 0.00 90 1010.7
20260505060048 69 96 4.0 12.0 0.00 0.00 0.00 89 1010.8
20260505054547 69 74 2.0 11.0 0.00 0.00 0.00 88 1010.7
20260505053048 68 78 2.0 9.0 0.00 0.00 0.00 87 1010.7
20260505051547 69 80 3.0 10.0 0.00 0.00 0.00 86 1010.9
20260505041555 70 110 2.0 7.0 0.00 0.00 0.00 82 1010.8
20260505040059 70 94 2.0 6.0 0.00 0.00 0.00 82 1010.8
20260505034544 70 76 2.0 12.0 0.00 0.00 0.00 82 1010.6
20260505033041 70 59 2.0 9.0 0.00 0.00 0.00 82 1010.6
20260505031552 70 80 3.0 8.0 0.00 0.00 0.00 82 1010.6
20260505030047 70 110 3.0 8.0 0.00 0.00 0.00 81 1010.7
20260505024545 70 66 2.0 7.0 0.00 0.00 0.00 81 1010.8
20260505023047 71 103 2.0 6.0 0.00 0.00 0.00 80 1010.6
20260505021547 71 96 3.0 8.0 0.00 0.00 0.00 80 1010.7
20260505020042 72 69 2.0 8.0 0.00 0.00 0.00 79 1010.6
20260505014549 72 84 2.0 8.0 0.00 0.00 0.00 78 1010.4
20260505013048 73 90 3.0 10.0 0.00 0.00 0.00 77 1010.7
20260505011548 73 98 2.0 8.0 0.00 0.00 0.00 76 1010.6
20260505010057 74 96 2.0 10.0 0.00 0.00 0.00 74 1010.7
20260505004544 75 87 5.0 13.0 0.00 0.00 0.00 72 1010.6
20260505003048 76 144 6.0 12.0 0.00 0.00 0.00 71 1010.6
20260505001550 77 121 6.0 11.0 0.00 0.00 0.00 70 1010.6
20260505000056 77 53 6.0 16.0 0.00 0.00 0.00 70 1010.7
20260504234550 77 67 5.0 16.0 0.00 0.00 0.00 70 1010.8
20260504233041 78 136 4.0 15.0 0.00 0.00 0.00 69 1010.8
20260504231541 79 111 7.0 17.0 0.00 0.00 0.00 67 1010.8
20260504230048 79 59 8.0 16.0 0.00 0.00 0.00 66 1010.9
20260504224553 79 105 8.0 15.0 0.00 0.00 0.00 67 1011.0
20260504223042 78 139 6.0 15.0 0.00 0.00 0.00 67 1011.1
20260504221549 79 61 7.0 15.0 0.00 0.00 0.00 67 1011.3
20260504220056 79 132 10.0 16.0 0.00 0.00 0.00 66 1011.3
20260504214546 79 106 7.0 20.0 0.00 0.00 0.00 67 1011.5
20260504213058 78 14 5.0 16.0 0.00 0.00 0.00 67 1011.6
20260504211551 78 100 8.0 17.0 0.00 0.00 0.00 68 1011.8
20260504210048 78 109 9.0 19.0 0.00 0.00 0.00 67 1012.0
20260504204555 77 50 8.0 15.0 0.00 0.00 0.00 68 1012.4
20260504203048 78 119 8.0 15.0 0.00 0.00 0.00 68 1012.7
20260504201541 77 65 8.0 15.0 0.00 0.00 0.00 69 1012.9
20260504200049 76 94 7.0 19.0 0.00 0.00 0.00 70 1013.1
20260504194541 76 96 6.0 17.0 0.00 0.00 0.00 69 1013.4
20260504193059 76 107 7.0 18.0 0.00 0.00 0.00 70 1013.6
20260504191545 77 95 9.0 16.0 0.00 0.00 0.00 71 1013.6
20260504190042 76 123 9.0 19.0 0.00 0.00 0.00 71 1013.8
20260504184549 76 108 8.0 17.0 0.00 0.00 0.00 70 1013.9
20260504183057 76 129 6.0 15.0 0.00 0.00 0.00 71 1014.1
20260504181548 75 94 7.0 16.0 0.00 0.00 0.00 72 1014.1
20260504180127 75 118 7.0 16.0 0.00 0.00 0.00 72 1014.4
20260504174545 73 77 5.0 16.0 0.00 0.00 0.00 75 1014.6
20260504173049 72 128 6.0 17.0 0.00 0.00 0.00 75 1014.8
20260504171551 71 121 8.0 16.0 0.00 0.00 0.00 79 1015.1